EHI
0 0 0 0 0 0 0 0 0 0 0 0 0 0 0 0 0 0 0 0 0 0 0 0 0 0 0 0 0 0 0 0 0 0 0 0 0 0 0 0 0 0 0 0
0 0 0 0 0 0 0 0 0 0 0 0 0 0 0 0 0 0 0 0 0 0 0 0 0 0 0 0 0 0 0 0 0 0 0 0 0 0 0 0 0 0 0 0
0 0 0 0 0 0 0 0 0 0 0 0 0 0 0 0 0 0 0 0 0 0 0 0 0 0 0 0 0 0 0 0 0 0 0 0 0 0 0 0 0 0 0 0
0 0 0 0 0 0 0 0 0 0 0 0 0 0 0 0 0 0 0 0 0 0 0 0 0 0 0 0 0 0 0 0 0 0 0 0 0 0 0 0 0 0 0 0
0 0 0 0 0 0 0 0 0 0 0 0 0 0 0 0 0 0 0 0 0 0 0 0 0 0 0 0 0 0 0 0 0 0 0 0 0 0 0 0 0 0 0 0
0 0 0 0 0 0 0 0 0 0 0 0 0 0 0 0 0 0 0 0 0 0 0 0 0 0 0 0 0 0 0 0 0 0 0 0 0 0 0 0 0 0 0 0
0 0 0 0 0 0 0 0 0 0 0 0 0 0 0 0 0 0 0 0 0 0 0 0 0 0 0 0 0 0 0 0 0 0 0 0 0 0 0 0 0 0 0 0
0 0 0 0 0 0 0 0 0 0 0 0 0 0 0 0 0 0 0 0 0 0 0 0 0 0 0 0 0 0 0 0 0 0 0 0 0 0 0 0 0 0 0 0
0 0 0 0 0 0 0 0 0 0 0 0 0 0 0 0 0 0 0 0 0 0 0 0 0 0 0 0 0 0 0 0 0 0 0 0 0 0 0 0 0 0 0 0
0 0 0 0 0 0 0 0 0 0 0 0 0 0 0 0 0 0 0 0 0 0 0 0 0 0 0 0 0 0 0 0 0 0 0 0 0 0 0 0 0 0 0 0
0 0 0 0 0 0 0 0 0 0 0 0 0 0 0 0 0 0 0 0 0 0 0 0 0 0 0 0 0 0 0 0 0 0 0 0 0 0 0 0 0 0 0 0
0 0 0 0 0 0 0 0 0 0 0 0 0 0 0 0 0 0 0 0 0 0 0 0 0 0 0 0 0 0 0 0 0 0 0 0 0 0 0 0 0 0 0 0
0 0 0 0 0 0 0 0 0 0 0 0 0 0 0 0 0 0 0 0 0 0 0 0 0 0 0 0 0 0 0 0 0 0 0 0 0 0 0 0 0 0 0 0
0 0 0 0 0 0 0 0 0 0 0 0 0 0 0 0 0 0 0 0 0 0 0 0 0 0 0 0 0 0 0 0 0 0 0 0 0 0 0 0 0 0 0 0
0 0 0 0 0 0 0 0 0 0 0 0 0 0 0 0 0 0 0 0 0 0 0 0 0 0 0 0 0 0 0 0 0 0 0 0 0 0 0 0 0 0 0 0
0 0 0 0 0 0 0 0 0 0 0 0 0 0 0 0 0 0 0 0 0 0 0 0 0 0 0 0 0 0 0 0 0 0 0 0 0 0 0 0 0 0 0 0
0 0 0 0 0 0 0 0 0 0 0 0 0 0 0 0 0 0 0 0 0 0 0 0 0 0 0 0 0 0 0 0 0 0 0 0 0 0 0 0 0 0 0 0
0 0 0 0 0 0 0 0 0 0 0 0 0 0 0 0 0 0 0 0 0 0 0 0 0 0 0 0 0 0 0 0 0 0 0 0 0 0 0 0 0 0 0 0
0 0 0 0 0 0 0 0 0 0 0 0 0 0 0 0 0 0 0 0 0 0 0 0 0 0 0 0 0 0 0 0 0 0 0 0 0 0 0 0 0 0 0 0
0 0 0 0 0 0 0 0 0 0 0 0 0 0 0 0 0 0 0 0 0 0 0 0 0 0 0 0 0 0 0 0 0 0 0 0 0 0 0 0 0 0 0 0
0 0 0 0 0 0 0 0 0 0 0 0 0 0 0 0 0 0 0 0 0 0 0 0 0 0 0 0 0 0 0 0 0 0 0 0 0 0 0 0 0 0 0 0
0 0 0 0 0 0 0 0 0 0 0 0 0 0 0 0 0 0 0 0 0 0 0 0 0 0 0 0 0 0 0 0 0 0 0 0 0 0 0 0 0 0 0 0
0 0 0 0 0 0 0 0 0 0 0 0 0 0 0 0 0 0 0 0 0 0 0 0 0 0 0 0 0 0 0 0 0 0 0 0 0 0 0 0 0 0 0 0
0 0 0 0 0 0 0 0 0 0 0 0 0 0 0 0 0 0 0 0 0 0 0 0 0 0 0 0 0 0 0 0 0 0 0 0 0 0 0 0 0 0 0 0
0 0 0 0 0 0 0 0 0 0 0 0 0 0 0 0 0 0 0 0 0 0 0 0 0 0 0 0 0 0 0 0 0 0 0 0 0 0 0 0 0 0 0 0
0 0 0 0 0 0 0 0 0 0 0 0 0 0 0 0 0 0 0 0 0 0 0 0 0 0 0 0 0 0 0 0 0 0 0 0 0 0 0 0 0 0 0 0
0 0 0 0 0 0 0 0 0 0 0 0 0 0 0 0 0 0 0 0 0 0 0 0 0 0 0 0 0 0 0 0 0 0 0 0 0 0 0 0 0 0 0 0
Wind_Speed
8 7 5 8 9 9 11 10 10 11 11 12 8 7 6 4 4 3 3 4 4 4 4 3 3 2 2 2 2 2 2 2 3 3 2 2 2 2 2 2 3 3 3 3
7 6 6 9 11 11 12 11 12 11 14 10 6 3 3 4 4 5 5 5 5 5 4 4 4 3 3 3 2 2 2 3 2 2 2 2 2 2 2 2 2 2 3 3
6 4 4 11 12 12 9 8 9 14 14 5 4 5 6 6 6 6 6 6 5 5 5 5 5 4 4 3 2 2 2 2 2 2 2 2 2 2 2 3 2 2 3 3
3 1 10 10 3 6 9 10 9 8 6 5 7 6 5 5 6 6 6 5 5 4 4 4 3 3 2 2 2 2 2 2 2 2 2 2 2 2 3 2 3 3 3 4
3 5 11 8 3 4 6 9 7 9 9 6 4 3 4 3 4 5 5 5 5 4 3 3 2 2 2 1 1 2 2 3 3 2 2 2 2 2 2 2 3 3 3 4
4 6 10 7 2 1 2 7 4 5 6 4 1 3 5 2 2 2 3 2 2 1 1 1 2 1 2 2 2 3 3 3 2 2 2 2 3 3 2 2 3 3 3 3
8 9 11 5 1 3 4 7 2 3 4 3 4 5 3 2 2 1 2 2 1 0 1 1 1 1 1 1 2 3 2 2 2 2 2 3 2 2 2 2 2 3 3 3
6 8 11 2 3 6 6 2 2 2 3 3 3 2 2 2 2 1 2 1 1 0 1 1 0 1 1 2 3 1 1 1 2 2 2 2 2 2 2 2 2 2 2 3
8 8 2 2 4 2 1 3 3 2 2 3 3 3 2 2 2 1 1 1 1 0 0 1 1 1 2 3 2 1 1 2 2 2 2 2 2 2 2 2 2 2 2 3
5 7 4 4 3 3 2 3 3 2 2 2 2 2 2 2 2 1 1 1 1 0 0 2 2 2 1 2 1 1 1 2 1 1 1 1 2 2 2 2 2 3 3 3
6 6 4 3 4 3 2 2 2 1 1 1 2 2 2 2 2 2 1 1 1 1 1 2 2 2 2 2 1 1 1 2 2 1 1 1 2 2 3 3 4 4 3 3
7 4 4 5 3 2 2 2 2 1 2 1 1 1 1 2 2 1 1 1 1 1 2 2 2 2 2 2 1 1 2 2 1 1 1 2 2 2 4 5 7 7 7 6
5 2 2 3 2 1 1 2 1 1 1 1 1 1 1 1 1 1 1 1 2 2 2 2 2 3 3 2 2 1 2 2 2 2 1 2 2 2 3 4 6 6 7 7
2 1 1 1 2 1 1 1 1 1 1 0 1 1 1 1 1 2 2 2 2 2 2 2 2 3 3 2 2 2 2 3 2 1 1 2 2 2 2 3 3 3 4 7
2 1 2 1 1 1 1 1 1 2 2 2 2 1 1 1 2 2 3 2 2 2 2 2 2 4 3 2 2 2 2 2 2 1 2 2 2 2 2 2 3 3 3 4
2 1 0 0 0 1 1 1 1 1 2 2 2 2 2 2 2 3 3 2 1 2 3 3 3 3 3 2 2 2 2 4 3 2 1 2 2 2 2 2 2 2 3 3
1 2 1 2 2 1 1 1 1 1 1 2 2 2 2 2 2 3 3 2 2 3 3 3 4 3 3 2 2 2 2 3 4 3 2 2 2 2 2 2 2 3 3 4
3 3 2 2 2 2 2 2 1 1 2 2 2 1 1 1 2 3 3 3 3 3 4 3 3 3 3 2 2 2 1 2 2 2 2 2 2 2 2 2 3 3 3 4
1 1 1 1 2 2 2 2 2 2 2 1 1 1 2 2 2 3 2 2 3 4 4 4 6 3 3 3 3 1 1 2 2 2 2 4 3 2 2 2 3 3 3 3
1 0 1 1 1 1 1 1 1 1 2 1 1 1 2 3 3 3 2 3 3 3 4 4 4 3 3 4 4 1 1 2 2 2 2 2 2 3 3 3 3 3 3 3
1 1 1 1 1 1 1 2 1 2 2 1 2 3 3 3 3 2 2 3 3 3 4 5 3 3 3 3 3 1 1 2 2 2 2 2 3 3 3 3 3 3 3 3
1 1 1 1 1 2 2 1 2 2 2 2 3 3 3 3 3 3 3 3 4 6 4 2 2 5 5 4 1 1 2 2 2 2 2 3 3 3 3 3 3 4 4 4
1 2 2 2 2 2 2 2 2 2 3 3 3 3 3 3 2 2 3 3 3 6 4 2 5 8 7 2 1 1 2 2 2 3 3 3 3 3 3 4 4 4 4 4
2 2 2 1 1 1 2 3 3 2 3 3 3 4 3 3 3 3 3 6 7 7 3 5 8 8 5 1 1 2 2 3 3 3 3 3 3 3 3 4 4 4 4 5
2 2 2 2 2 3 3 3 2 3 3 3 3 3 3 3 3 3 3 3 6 6 4 6 8 7 3 1 2 2 3 3 4 4 3 3 4 4 4 4 4 5 5 5
2 2 2 3 3 3 2 2 2 2 2 3 3 3 3 3 3 3 3 3 4 6 4 3 3 4 2 2 3 3 3 4 4 4 4 4 4 4 4 5 6 5 5 6
2 2 2 2 2 2 2 2 3 3 3 3 4 3 3 3 3 3 3 3 3 3 3 3 3 3 3 3 3 4 4 4 4 4 4 4 4 5 5 6 5 5 5 6
Wind_Direction
256 264 245 240 238 213 211 216 224 243 242 256 251 244 243 239 251 257 255 246 244 247 248 245 242 242 243 250 244 232 223 232 241 246 238 233 236 236 231 233 239 233 231 242
268 260 255 259 254 233 230 232 238 254 262 260 264 260 251 242 237 247 256 251 248 247 247 244 242 241 241 249 249 229 228 241 251 249 247 242 240 239 242 242 245 243 238 240
265 284 299 262 240 223 220 218 212 233 248 267 266 256 244 241 233 239 249 255 253 245 240 241 238 232 228 233 239 229 234 248 250 245 249 249 244 238 241 243 242 241 244 244
259 308 247 247 227 207 219 238 225 236 258 257 253 258 258 244 232 245 249 253 260 256 250 248 244 236 229 219 220 232 239 247 252 246 249 249 237 238 242 244 243 244 246 246
217 246 268 279 251 186 204 256 230 234 255 266 278 306 281 259 234 235 244 249 254 251 251 247 235 227 211 224 225 237 244 248 251 250 252 249 246 247 246 240 248 248 246 241
213 235 253 257 242 187 138 268 240 219 244 255 237 261 265 270 292 286 277 263 261 267 255 237 243 198 189 224 227 243 248 252 255 248 245 247 248 255 260 250 252 255 261 254
225 240 259 259 234 130 188 254 287 238 238 217 219 235 267 304 302 281 292 292 281 243 247 249 227 168 196 224 247 256 262 264 266 255 246 243 241 251 254 260 261 255 262 266
205 228 251 209 150 193 230 295 279 262 244 224 240 255 275 283 288 304 322 331 340 200 290 302 196 162 218 256 268 275 271 268 262 258 255 260 237 249 250 249 250 256 260 268
203 223 263 179 207 256 313 281 275 263 261 229 235 253 278 293 293 293 297 304 323 159 350 344 324 183 231 278 286 283 283 274 271 272 266 264 242 246 246 237 239 251 251 264
247 256 260 263 276 294 291 276 283 269 257 215 224 247 280 288 296 300 304 299 313 67 349 318 325 322 274 296 315 289 281 284 280 271 274 271 268 249 245 242 237 245 251 258
246 268 302 284 264 270 289 309 308 313 293 230 212 251 261 276 285 286 295 308 301 252 270 298 326 324 322 325 337 308 290 287 293 292 284 278 280 266 262 245 240 241 235 239
237 235 231 262 273 272 266 278 278 300 331 334 237 244 271 283 287 286 291 306 315 304 300 309 323 318 323 323 313 291 295 300 294 292 290 286 289 306 303 296 289 274 268 266
249 270 256 268 313 334 262 284 312 297 257 297 321 281 281 303 316 320 315 311 293 289 296 311 321 317 320 322 316 291 280 289 285 284 282 283 287 294 307 317 311 303 298 295
283 260 267 266 278 327 334 321 359 6 342 327 331 349 344 330 330 323 303 297 298 308 317 318 313 308 314 321 311 299 284 283 289 286 285 287 287 286 287 297 308 309 315 314
297 256 223 264 16 12 24 58 49 14 14 13 15 4 354 335 322 316 316 326 338 334 324 323 313 307 320 316 304 300 292 286 285 283 282 282 284 285 285 286 291 300 311 314
291 337 95 138 266 353 28 44 28 331 344 349 351 344 332 320 313 318 328 342 339 314 311 310 300 304 316 310 310 307 296 295 300 295 292 291 291 289 291 294 298 302 303 305
193 256 251 258 262 287 290 272 246 271 301 307 305 313 328 337 337 330 327 323 308 301 304 299 297 308 311 303 296 296 300 301 309 314 307 298 296 291 292 293 293 296 297 297
232 240 227 219 220 237 268 278 267 274 280 287 302 325 334 321 300 302 311 323 328 323 313 305 303 303 301 299 288 288 289 296 299 294 295 291 292 288 286 289 295 299 305 311
231 230 235 228 219 215 238 259 269 274 285 292 296 288 283 282 281 291 310 321 315 305 304 306 313 325 311 298 301 280 279 288 293 295 295 299 310 311 301 296 296 299 303 306
239 214 205 236 238 210 235 254 260 277 287 280 279 291 296 293 291 295 301 285 269 269 283 295 300 303 298 292 298 284 272 280 287 293 294 291 294 296 295 293 294 294 296 298
240 228 217 218 242 254 241 234 231 260 281 272 252 263 273 285 288 282 286 291 294 291 288 298 310 298 290 290 293 280 264 270 275 279 284 287 290 292 294 294 295 295 294 295
240 232 236 229 232 265 270 252 239 252 269 273 269 266 272 282 285 279 264 265 284 301 308 294 294 294 298 307 305 282 270 267 270 274 276 278 281 284 288 291 291 292 292 291
236 233 238 243 242 261 284 270 252 248 255 261 263 262 261 266 269 270 285 283 280 293 303 284 293 301 310 331 315 296 285 272 268 270 272 272 272 274 278 282 283 286 288 288
227 231 242 250 240 251 271 275 269 263 261 265 263 258 255 268 276 261 260 289 300 304 304 299 306 313 331 1 322 298 289 284 276 269 267 268 271 272 273 275 279 281 282 284
227 226 224 226 241 252 259 273 279 272 270 271 272 267 258 249 256 272 275 277 289 304 305 305 308 315 329 308 292 286 282 275 271 272 267 269 270 270 271 272 272 276 279 278
221 234 239 239 242 250 254 255 261 265 265 273 280 276 271 268 263 267 273 277 277 292 298 291 292 300 293 284 280 280 280 288 296 292 279 275 271 268 269 271 271 271 272 273
238 242 248 263 259 249 248 248 253 259 259 259 273 276 272 273 272 270 272 276 279 281 280 278 275 272 274 275 277 279 279 278 276 275 275 272 272 270 267 266 268 270 271 272